Tracking 33407 objects as of 5-Mar-2026
HD Live streaming from Space Station
objects crossing your sky now

STARLINK-1457

Track STARLINK-1457 now!
10-day predictions
STARLINK-1457 is classified as:


NORAD ID: 45674
Int'l Code: 2020-035T
Perigee: 338.9 km
Apogee: 351.9 km
Inclination: 53.0 °
Period: 91.3 minutes
Semi major axis: 6716 km
RCS: Unknown
Launch date: June 4, 2020
Source: United States (US)
Launch site: AIR FORCE EASTERN TEST RANGE (AFETR)
Your satellite tracking list
Your tracking list is empty




NASA's NSSDC Master Catalog

Two Line Element Set (TLE):
1 45674U 20035T   26064.23384256  .00139590  00000-0  82158-3 0  9991
2 45674  53.0488  44.7221 0009664  52.1613 308.0280 15.77246879318626
Source of the keplerian elements: AFSPC